Weather History for Hyderabad, India

Change the Weather History Date:

Friday, November 16, 2012

  Actual Average Record
Temperature  
Mean Temperature 70 °F -  
Max Temperature 83 °F 81 °F 86 °F (1999)
Min Temperature 56 °F 61 °F 56 °F (2012)
Cooling Degree Days 4    
Growing Degree Days 20 (Base 50)    
Moisture  
Dew Point 46 °F    
Average Humidity 44    
Maximum Humidity 88    
Minimum Humidity 18    
Precipitation  
Precipitation 0.00 in 0.02 in - ()
Sea Level Pressure  
Sea Level Pressure 29.99 in    
Wind  
Wind Speed 2 mph ()    
Max Wind Speed 7 mph    
Max Gust Speed -    
Visibility 3.2 miles    
Events      
Averages and records for this station are not official NWS values.
T = Trace of Precipitation, MM = Missing Value Source: Averaged Metar Reports

Daily Weather History Graph

Daily Weather History Graph

Search for Another Location

Airport:

Trip Planner

Search our weather history database for the weather conditions in past years. The results will help you decide how hot, cold, wet, or windy it might be!

Date:

Astronomy

Nov. 16, 2012 Rise Set
Actual Time 6:21 AM IST 5:39 PM IST
Civil Twilight 5:58 AM IST 6:02 PM IST
Nautical Twilight 5:32 AM IST 6:29 PM IST
Astronomical Twilight 5:06 AM IST 6:55 PM IST
Moon 8:41 AM IST (11/16) 8:14 PM IST (11/16)
Length of Visible Light 12h 03m
Length of Day
11h 18m
Waxing Crescent, 8% of the Moon is Illuminated
Nov 16
Waxing Crescent
Nov 20
First Quarter
Nov 28
Full
Dec 6
Last Quarter
Dec 13
New

Hourly Weather History & Observations

Time (IST) Temp. Dew Point Humidity Pressure Visibility Wind Dir Wind Speed Gust Speed Precip Events Conditions
2:30 AM 61 °F 56 °F 80% 29.96 in 2 mi Calm Calm - -   Haze
5:30 AM 57 °F 53 °F 81% 29.97 in 2 mi Calm Calm - -   Haze
6:10 AM 55.4 °F 44.6 °F 67% 30.04 in 1.2 mi Calm Calm - N/A   Haze
7:10 AM 57.2 °F 44.6 °F 63% 30.06 in 1.9 mi Calm Calm - N/A   Haze
8:10 AM 66.2 °F 46.4 °F 49% 30.06 in 1.9 mi NNE 4.6 mph - N/A   Haze
8:30 AM 71 °F 50 °F 37% 29.99 in 2 mi NE 4.6 mph - -   Clear
10:10 AM 77.0 °F 46.4 °F 34% 30.09 in 3.1 mi East 6.9 mph - N/A   Haze
11:30 AM 79 °F 49 °F 24% 29.95 in 6 mi East 4.6 mph - -   Clear
12:10 PM 78.8 °F 44.6 °F 30% 30.06 in 3.7 mi NNE 5.8 mph - N/A   Unknown
1:10 PM 80.6 °F 42.8 °F 26% 30.01 in 3.7 mi NNE 6.9 mph - N/A   Unknown
2:30 PM 82 °F 46 °F 18% 29.86 in 6 mi NE 5.8 mph - -   Scattered Clouds
2:40 PM 80.6 °F 37.4 °F 21% 29.98 in 3.7 mi NNE 6.9 mph - N/A   Unknown
3:10 PM 80.6 °F 41.0 °F 24% 29.95 in 3.7 mi NE 6.9 mph - N/A   Unknown
4:10 PM 80.6 °F 39.2 °F 23% 29.95 in 3.7 mi NNE 6.9 mph - N/A   Unknown
5:10 PM 78.8 °F 37.4 °F 23% 29.95 in 3.7 mi NE 6.9 mph - N/A   Unknown
5:30 PM 76 °F 47 °F 24% 29.88 in 6 mi NE 4.6 mph - -   Scattered Clouds
7:10 PM 69.8 °F 41.0 °F 35% 30.01 in 3.1 mi Calm Calm - N/A   Haze
8:10 PM 66.2 °F 41.0 °F 40% 30.04 in 3.1 mi Calm Calm - N/A   Haze
8:30 PM 66 °F 52 °F 52% 29.95 in 2 mi Calm Calm - -   Haze
9:10 PM 62.6 °F 59.0 °F 88% 30.06 in 3.1 mi Calm Calm - N/A   Haze
11:30 PM 61 °F 56 °F 78% 29.99 in 2 mi Calm Calm - -   Haze